Previsão horária em Kabankino

Hoje, 22 Junho, Terça-feira

Tempo Temperatura Precipitação Vento Pressão Humidade
00:00 +20°C° 0 mm 1 m/s 755 mmHg 67%
01:00 +20°C° 0 mm 1 m/s 755 mmHg 67%
02:00 +20°C° 0 mm 1 m/s 755 mmHg 67%
03:00 +20°C° 0 mm 1 m/s 755 mmHg 66%
04:00 +21°C° 0 mm 1 m/s 755 mmHg 64%
05:00 +22°C° 0.1 mm 1 m/s 755 mmHg 63%
06:00 +23°C° 0.1 mm 1 m/s 755 mmHg 62%
07:00 +24°C° 0.1 mm 1 m/s 755 mmHg 61%
08:00 +26°C° 0.1 mm 2 m/s 755 mmHg 57%
09:00 +28°C° 0.1 mm 2 m/s 755 mmHg 52%
10:00 +30°C° 0.1 mm 3 m/s 755 mmHg 48%
11:00 +31°C° 0 mm 3 m/s 755 mmHg 45%
12:00 +33°C° 0 mm 4 m/s 754 mmHg 42%
13:00 +34°C° 0 mm 4 m/s 754 mmHg 38%
14:00 +34°C° 0 mm 4 m/s 754 mmHg 38%
15:00 +34°C° 0 mm 4 m/s 754 mmHg 38%
16:00 +34°C° 0 mm 4 m/s 754 mmHg 38%
17:00 +33°C° 0 mm 4 m/s 754 mmHg 42%
18:00 +31°C° 0 mm 3 m/s 753 mmHg 46%
19:00 +30°C° 0 mm 3 m/s 753 mmHg 49%
20:00 +28°C° 0 mm 2 m/s 753 mmHg 53%
21:00 +26°C° 0 mm 2 m/s 753 mmHg 56%
22:00 +25°C° 0 mm 1 m/s 753 mmHg 59%
23:00 +24°C° 0 mm 1 m/s 753 mmHg 62%

Amanhã, 23 Junho, Quarta-feira

Tempo Temperatura Precipitação Vento Pressão Humidade
00:00 +23°C° 0 mm 1 m/s 753 mmHg 65%
01:00 +23°C° 0 mm 1 m/s 753 mmHg 68%
02:00 +22°C° 0 mm 1 m/s 753 mmHg 69%
03:00 +22°C° 0 mm 1 m/s 753 mmHg 71%
04:00 +22°C° 0 mm 1 m/s 753 mmHg 73%
05:00 +23°C° 0 mm 1 m/s 753 mmHg 69%
06:00 +25°C° 0 mm 1 m/s 753 mmHg 65%
07:00 +26°C° 0 mm 2 m/s 753 mmHg 61%
08:00 +28°C° 0 mm 2 m/s 753 mmHg 55%
09:00 +30°C° 0 mm 3 m/s 753 mmHg 50%
10:00 +33°C° 0 mm 4 m/s 753 mmHg 44%
11:00 +33°C° 0 mm 4 m/s 752 mmHg 45%
12:00 +33°C° 0 mm 5 m/s 752 mmHg 45%
13:00 +33°C° 0 mm 5 m/s 752 mmHg 45%
14:00 +34°C° 0 mm 6 m/s 752 mmHg 41%
15:00 +35°C° 0 mm 6 m/s 751 mmHg 36%
16:00 +35°C° 0 mm 6 m/s 751 mmHg 32%
17:00 +32°C° 0.1 mm 6 m/s 751 mmHg 45%
18:00 +27°C° 0.1 mm 5 m/s 752 mmHg 58%
19:00 +22°C° 0.1 mm 5 m/s 752 mmHg 71%
20:00 +21°C° 0.2 mm 4 m/s 752 mmHg 76%
21:00 +21°C° 0.2 mm 2 m/s 752 mmHg 80%
22:00 +21°C° 0.2 mm 1 m/s 752 mmHg 84%
23:00 +21°C° 0.1 mm 1 m/s 752 mmHg 85%

Depois de amanhã, 24 Junho, Quinta-feira

Tempo Temperatura Precipitação Vento Pressão Humidade
00:00 +20°C° 0.1 mm 1 m/s 752 mmHg 86%
01:00 +20°C° 0.1 mm 1 m/s 752 mmHg 87%
02:00 +20°C° 0 mm 1 m/s 752 mmHg 88%
03:00 +19°C° 0 mm 1 m/s 752 mmHg 89%
04:00 +19°C° 0 mm 1 m/s 752 mmHg 90%
05:00 +20°C° 0 mm 1 m/s 752 mmHg 86%
06:00 +22°C° 0 mm 1 m/s 752 mmHg 83%
07:00 +23°C° 0 mm 1 m/s 752 mmHg 80%
08:00 +25°C° 0 mm 1 m/s 752 mmHg 73%
09:00 +26°C° 0 mm 1 m/s 752 mmHg 67%
10:00 +26°C° 0 mm 0 m/s 752 mmHg 60%
11:00 +29°C° 0 mm 1 m/s 752 mmHg 55%
12:00 +30°C° 0 mm 1 m/s 752 mmHg 51%
13:00 +31°C° 0 mm 2 m/s 752 mmHg 46%
14:00 +31°C° 0 mm 2 m/s 751 mmHg 44%
15:00 +33°C° 0 mm 3 m/s 751 mmHg 43%
16:00 +33°C° 0 mm 3 m/s 751 mmHg 41%
17:00 +31°C° 0 mm 2 m/s 751 mmHg 45%
18:00 +30°C° 0 mm 2 m/s 750 mmHg 49%
19:00 +29°C° 0 mm 2 m/s 750 mmHg 54%
20:00 +27°C° 0 mm 2 m/s 750 mmHg 57%
21:00 +26°C° 0 mm 2 m/s 750 mmHg 61%
22:00 +25°C° 0 mm 2 m/s 750 mmHg 65%
23:00 +24°C° 0 mm 1 m/s 750 mmHg 68%

25 Junho, Sexta-feira

Tempo Temperatura Precipitação Vento Pressão Humidade
00:00 +23°C° 0 mm 1 m/s 750 mmHg 70%
01:00 +20°C° 0 mm 0 m/s 750 mmHg 73%
02:00 +20°C° 0.1 mm 0 m/s 749 mmHg 75%
03:00 +20°C° 0.1 mm 0 m/s 749 mmHg 77%
04:00 +19°C° 0.1 mm 0 m/s 749 mmHg 80%
05:00 +23°C° 0 mm 1 m/s 749 mmHg 77%
06:00 +24°C° 0 mm 1 m/s 749 mmHg 73%
07:00 +26°C° 0 mm 2 m/s 749 mmHg 70%
08:00 +27°C° 0 mm 3 m/s 749 mmHg 64%
09:00 +29°C° 0 mm 4 m/s 749 mmHg 58%
10:00 +30°C° 0 mm 4 m/s 748 mmHg 51%
11:00 +32°C° 0 mm 4 m/s 748 mmHg 48%
12:00 +33°C° 0 mm 5 m/s 748 mmHg 45%
13:00 +33°C° 0 mm 5 m/s 748 mmHg 42%
14:00 +33°C° 0 mm 5 m/s 748 mmHg 44%
15:00 +32°C° 0 mm 5 m/s 747 mmHg 46%
16:00 +32°C° 0 mm 5 m/s 747 mmHg 48%
17:00 +30°C° 0.3 mm 5 m/s 747 mmHg 54%
18:00 +28°C° 0.3 mm 4 m/s 747 mmHg 60%
19:00 +27°C° 0.3 mm 3 m/s 747 mmHg 66%
20:00 +26°C° 0.2 mm 3 m/s 747 mmHg 72%
21:00 +25°C° 0.2 mm 2 m/s 747 mmHg 78%
22:00 +23°C° 0.2 mm 2 m/s 747 mmHg 84%
23:00 +23°C° 0 mm 2 m/s 747 mmHg 86%

26 Junho, Sábado

Tempo Temperatura Precipitação Vento Pressão Humidade
00:00 +21°C° 0 mm 2 m/s 747 mmHg 89%
01:00 +21°C° 0 mm 2 m/s 747 mmHg 91%
02:00 +21°C° 0 mm 2 m/s 746 mmHg 91%
03:00 +21°C° 0 mm 1 m/s 746 mmHg 91%
04:00 +21°C° 0 mm 1 m/s 746 mmHg 92%
05:00 +22°C° 0 mm 1 m/s 746 mmHg 86%
06:00 +24°C° 0 mm 2 m/s 746 mmHg 81%
07:00 +25°C° 0 mm 2 m/s 747 mmHg 75%
08:00 +27°C° 0 mm 3 m/s 747 mmHg 68%
09:00 +29°C° 0 mm 3 m/s 746 mmHg 60%
10:00 +32°C° 0 mm 4 m/s 746 mmHg 52%
11:00 +33°C° 0 mm 4 m/s 746 mmHg 48%
12:00 +34°C° 0 mm 4 m/s 746 mmHg 43%
13:00 +35°C° 0 mm 4 m/s 746 mmHg 39%
14:00 +35°C° 0 mm 4 m/s 746 mmHg 38%
15:00 +36°C° 0 mm 5 m/s 745 mmHg 37%
16:00 +36°C° 0 mm 5 m/s 745 mmHg 36%
17:00 +35°C° 0 mm 5 m/s 745 mmHg 40%
18:00 +34°C° 0 mm 4 m/s 745 mmHg 45%
19:00 +33°C° 0 mm 4 m/s 745 mmHg 50%
20:00 +30°C° 0 mm 4 m/s 745 mmHg 57%
21:00 +28°C° 0 mm 3 m/s 745 mmHg 65%
22:00 +25°C° 0 mm 3 m/s 745 mmHg 73%
23:00 +25°C° 0 mm 2 m/s 745 mmHg 76%

27 Junho, Domingo

Tempo Temperatura Precipitação Vento Pressão Humidade
00:00 +24°C° 0 mm 2 m/s 745 mmHg 79%
01:00 +24°C° 0 mm 1 m/s 745 mmHg 82%
02:00 +23°C° 0 mm 2 m/s 745 mmHg 83%
03:00 +23°C° 0 mm 2 m/s 745 mmHg 84%
04:00 +23°C° 0 mm 2 m/s 745 mmHg 84%
05:00 +24°C° 0 mm 2 m/s 745 mmHg 79%
06:00 +26°C° 0 mm 3 m/s 745 mmHg 74%
07:00 +27°C° 0 mm 3 m/s 746 mmHg 69%
08:00 +28°C° 0 mm 4 m/s 746 mmHg 63%
09:00 +30°C° 0 mm 4 m/s 746 mmHg 56%
10:00 +32°C° 0 mm 4 m/s 745 mmHg 50%
11:00 +33°C° 0 mm 4 m/s 745 mmHg 46%
12:00 +34°C° 0 mm 4 m/s 745 mmHg 43%
13:00 +34°C° 0 mm 4 m/s 745 mmHg 39%
14:00 +35°C° 0 mm 4 m/s 745 mmHg 38%
15:00 +35°C° 0 mm 4 m/s 745 mmHg 36%
16:00 +35°C° 0 mm 5 m/s 744 mmHg 35%
17:00 +34°C° 0 mm 5 m/s 744 mmHg 39%
18:00 +32°C° 0 mm 5 m/s 744 mmHg 44%
19:00 +30°C° 0 mm 6 m/s 744 mmHg 48%
20:00 +28°C° 0 mm 5 m/s 744 mmHg 54%
21:00 +25°C° 0 mm 4 m/s 744 mmHg 59%
22:00 +22°C° 0 mm 3 m/s 744 mmHg 65%
23:00 +21°C° 0 mm 2 m/s 744 mmHg 68%
Mostrar mais

Necessitamos do seu Consentimento

A Meteoprog e os seus Fornecedores de Serviços podem armazenar e aceder a dados pessoais como cookies, identificadores do dispositivo ou outras tecnologias semelhantes existentes no seu dispositivo e processar estes dados para personalizar conteúdos e anúncios, assim como funcionalidades nas redes sociais e análise de tráfego.

  • Armazenar e/ou aceder a informações no seu dispositivo

    Os cookies, identificadores do dispositivo ou outras informações podem ser armazenados ou acedidos no seu dispositivo, para os fins acima indicados.

  • Anúncios e conteúdos personalizados, medição de anúncios e conteúdos, dados sobre o público-alvo e desenvolvimento de produtos

    Os anúncios e os conteúdos podem ser personalizados com base num perfil. Podem ser adicionados dados adicionais para uma maior personalização dos anúncios e dos conteúdos. A eficácia dos anúncios e dos conteúdos pode ser medida. Podem ser obtidas informações sobre o público que visualizou os anúncios e os conteúdos. Estes dados podem ser usados para desenvolver ou melhorar sistemas, softwares ou a experiência do utilizador.

Ao clicar em "Eu concordo”, permitirá o uso de cookies, identificadores do dispositivo e web beacons mencionados ou outras tecnologias semelhantes. As configurações do navegador do seu dispositivo podem ser alteradas.

Para certos fins, podem ser invocados interesses legítimos ao invés de consentimento. Pode ler mais informação sobre este assunto na nossa Política de Privacidade e Cookies.